Location: Observatoire
(46.1952°N, 5.3391°E)
Time: 23:12:08
(UTC+01:00)

Courier 1B Rocket - Pass Details

Date: 23 February 2026
Orbit: 920 x 1201 km, 28.2° (Epoch: 11 March)

Event Time Altitude Azimuth Distance (km) Brightness Sun altitude
Rises 19:23:04 0° 234° (SW) 3,556 8.9 -12.3°
Reaches altitude 10° 19:26:58 10° 211° (SSW) 2,601 7.7 -13.0°
Maximum altitude 19:30:08 14° 180° (S) 2,300 7.0 -13.5°
Drops below altitude 10° 19:33:18 10° 149° (SSE) 2,613 6.9 -14.1°
Enters shadow 19:34:46 - 138° (SE) 2,922 7.1 -14.3°
Sets 19:37:14 0° 126° (SE) 3,583 - -14.7°
